User: anonymous   Login
Location: Biharia
(46.4333°N, 22.8000°E)
Time: 23:25:00
(UTC+00:00)
Language:

Okean O Rocket - Orbit

View from above orbital plane
View from above orbital plane
View from above satellite
View from above satellite

Ground track
Ground track

The orbit data is extracted from the following two-line orbital elements,

1 25861U 99039B   22028.56712285  .00000152  00000-0  28169-4 0  9990
2 25861  98.1924  53.1542 0016781  64.6902  48.5870 14.78710224214822
Epoch (UTC): 28 January 2022 13:36:39
Eccentricity: 0.0016781
inclination: 98.1924°
perigee height: 621 km
apogee height: 645 km
right ascension of ascending node: 53.1542°
argument of perigee: 64.6902°
revolutions per day: 14.78710224
mean anomaly at epoch: 48.5870°
orbit number at epoch: 21482

The dashed part of the orbit path shows where the satellite is in the earth's shadow,  

DLR